Weather History for Demopolis Municipal Airport, AL

Change the Weather History Date:

Saturday, January 11, 2014

  Actual Average (KMEI) Record (KMEI)
Temperature  
Mean Temperature 52 °F 44 °F  
Max Temperature 67 °F 56 °F 82 °F (1949)
Min Temperature 36 °F 33 °F 3 °F (1962)
Degree Days  
Heating Degree Days 14 21  
Month to date heating degree days 224  
Since 1 July heating degree days 1232  
Cooling Degree Days 0 0  
Month to date cooling degree days 0  
Year to date cooling degree days 0  
Growing Degree Days 2 (Base 50)    
Moisture  
Dew Point 40 °F    
Average Humidity 57    
Maximum Humidity 100    
Minimum Humidity 20    
Precipitation  
Precipitation 0.00 in 0.15 in 2.51 in (1993)
Month to date precipitation 1.58  
Year to date precipitation 1.58  
Sea Level Pressure  
Sea Level Pressure 29.89 in    
Wind  
Wind Speed 3 mph (West)    
Max Wind Speed 20 mph    
Max Gust Speed 26 mph    
Visibility 9 miles    
Events Rain    
T = Trace of Precipitation, MM = Missing Value Source: NWS Daily Summary

Daily Weather History Graph

Daily Weather History Graph

Search for Another Location

Airport:

Trip Planner

Search our weather history database for the weather conditions in past years. The results will help you decide how hot, cold, wet, or windy it might be!

Date:

Astronomy

Jan. 11, 2014 Rise Set
Actual Time 6:54 AM CST 5:05 PM CST
Civil Twilight 6:27 AM CST 5:32 PM CST
Nautical Twilight 5:57 AM CST 6:02 PM CST
Astronomical Twilight 5:27 AM CST 6:32 PM CST
Moon 1:47 PM CST (1/11) 3:01 AM CST (1/11)
Length of Visible Light 11h 04m
Length of Day
10h 11m
Waxing Gibbous, 83% of the Moon is Illuminated
Jan 11
Waxing Gibbous
Jan 15
Full
Jan 23
Last Quarter
Jan 30
New
Feb 6
First Quarter

Hourly Weather History & Observations

Time (CST) Temp. Dew Point Humidity Pressure Visibility Wind Dir Wind Speed Gust Speed Precip Events Conditions
12:15 AM 60.3 °F - N/A% 29.84 in 2.5 mi Calm Calm - N/A   Overcast
12:35 AM 60.8 °F - N/A% 29.83 in 2.5 mi Calm Calm - N/A   Overcast
12:55 AM 61.3 °F - N/A% 29.82 in 3.0 mi Calm Calm - N/A   Overcast
1:15 AM 61.7 °F - N/A% 29.80 in 2.0 mi Calm Calm - N/A   Overcast
1:35 AM 63.0 °F - N/A% 29.81 in 5.0 mi Calm Calm - N/A   Haze
1:55 AM 64.6 °F - N/A% 29.79 in 10.0 mi Calm Calm - N/A   Overcast
2:15 AM 65.7 °F - N/A% 29.79 in 10.0 mi Calm Calm - N/A   Overcast
2:35 AM 66.2 °F 66.2 °F 100% 29.78 in 10.0 mi South 4.6 mph - N/A   Overcast
2:55 AM 66.2 °F 66.2 °F 100% 29.77 in 7.0 mi South 3.5 mph - N/A Rain Light Rain
3:15 AM 66.4 °F 66.4 °F 100% 29.76 in 10.0 mi Calm Calm - N/A Rain Rain
3:35 AM 66.4 °F 66.4 °F 100% 29.75 in 7.0 mi Calm Calm - N/A Rain Heavy Rain
3:55 AM 66.4 °F - N/A% 29.76 in 10.0 mi Calm Calm - N/A Rain Light Rain
4:15 AM 66.6 °F - N/A% 29.76 in 7.0 mi Calm Calm - N/A Rain Heavy Rain
4:35 AM 67.1 °F 67.1 °F 100% 29.77 in 10.0 mi SSW 13.8 mph 20.7 mph N/A Rain Rain
4:55 AM 66.7 °F 66.7 °F 100% 29.80 in 7.0 mi West 16.1 mph 21.9 mph N/A Rain Rain
5:15 AM 63.5 °F 63.5 °F 100% 29.79 in 5.0 mi WSW 3.5 mph 26.5 mph N/A Rain Heavy Rain
5:35 AM 62.8 °F 62.8 °F 100% 29.80 in 7.0 mi Calm Calm - N/A Rain Rain
5:55 AM 63.0 °F - N/A% 29.81 in 7.0 mi Calm Calm - N/A Rain Rain
6:15 AM 63.0 °F - N/A% 29.83 in 10.0 mi Calm Calm - N/A Rain Light Rain
6:35 AM 62.6 °F - N/A% 29.82 in 10.0 mi Calm Calm - N/A Rain Rain
6:55 AM 62.2 °F - N/A% 29.81 in 10.0 mi Calm Calm - N/A   Mostly Cloudy
7:15 AM 62.2 °F - N/A% 29.82 in 10.0 mi Calm Calm - N/A   Mostly Cloudy
7:35 AM 62.1 °F - N/A% 29.83 in 10.0 mi Calm Calm - N/A   Overcast
7:55 AM 62.2 °F - N/A% 29.85 in 10.0 mi Calm Calm - N/A   Mostly Cloudy
8:15 AM 63.5 °F 63.5 °F 100% 29.85 in 10.0 mi Calm Calm - N/A   Clear
8:35 AM 64.4 °F 64.4 °F 100% 29.86 in 10.0 mi Calm Calm - N/A   Clear
8:55 AM 65.3 °F 65.3 °F 100% 29.87 in 10.0 mi Calm Calm - N/A   Scattered Clouds
9:15 AM 65.3 °F 65.1 °F 99% 29.87 in 10.0 mi West 11.5 mph 19.6 mph N/A   Mostly Cloudy
9:35 AM 61.5 °F 49.6 °F 65% 29.89 in 10.0 mi WNW 3.5 mph 18.4 mph N/A   Scattered Clouds
9:55 AM 63.7 °F 50.2 °F 61% 29.89 in 10.0 mi WNW 8.1 mph - N/A   Clear
10:15 AM 64.0 °F 39.9 °F 41% 29.89 in 10.0 mi WNW 5.8 mph 20.7 mph N/A   Clear
10:35 AM 63.5 °F 38.1 °F 39% 29.89 in 10.0 mi Calm Calm - N/A   Scattered Clouds
10:55 AM 64.6 °F 35.6 °F 34% 29.89 in 10.0 mi Calm Calm - N/A   Scattered Clouds
11:15 AM 65.5 °F 29.1 °F 26% 29.88 in 10.0 mi West 5.8 mph - N/A   Clear
11:35 AM 66.0 °F 28.4 °F 24% 29.87 in 10.0 mi West 11.5 mph 18.4 mph N/A   Clear
11:55 AM 66.7 °F 31.6 °F 27% 29.87 in 10.0 mi West 9.2 mph - N/A   Clear
12:15 PM 65.8 °F 30.9 °F 27% 29.87 in 10.0 mi WNW 6.9 mph - N/A   Scattered Clouds
12:35 PM 65.5 °F 30.9 °F 27% 29.86 in 10.0 mi West 13.8 mph 18.4 mph N/A   Mostly Cloudy
12:55 PM 66.0 °F 31.3 °F 27% 29.85 in 10.0 mi Calm Calm - N/A   Mostly Cloudy
1:15 PM 66.4 °F 30.4 °F 26% 29.85 in 10.0 mi West 6.9 mph - N/A   Mostly Cloudy
1:35 PM 66.6 °F 29.5 °F 25% 29.84 in 10.0 mi West 12.7 mph 19.6 mph N/A   Scattered Clouds
1:55 PM 66.9 °F 29.5 °F 25% 29.84 in 10.0 mi West 13.8 mph 18.4 mph N/A   Clear
2:15 PM 67.1 °F 27.1 °F 22% 29.84 in 10.0 mi WSW 16.1 mph 21.9 mph N/A   Clear
2:35 PM 67.1 °F 26.1 °F 21% 29.84 in 10.0 mi West 18.4 mph 24.2 mph N/A   Clear
2:55 PM 66.2 °F 24.3 °F 20% 29.84 in 10.0 mi West 19.6 mph 24.2 mph N/A   Clear
3:15 PM 66.2 °F 25.2 °F 21% 29.85 in 10.0 mi West 3.5 mph 23.0 mph N/A   Clear
3:35 PM 65.1 °F 25.9 °F 23% 29.86 in 10.0 mi WSW 16.1 mph 25.3 mph N/A   Clear
3:55 PM 64.4 °F 25.9 °F 23% 29.87 in 10.0 mi West 15.0 mph 21.9 mph N/A   Clear
4:15 PM 63.5 °F 26.2 °F 24% 29.88 in 10.0 mi West 13.8 mph 25.3 mph N/A   Clear
4:35 PM 62.6 °F 25.2 °F 24% 29.89 in 10.0 mi West 12.7 mph 20.7 mph N/A   Clear
4:55 PM 61.2 °F 27.3 °F 28% 29.90 in 10.0 mi West 13.8 mph 21.9 mph N/A   Clear
5:15 PM 59.9 °F 30.4 °F 33% 29.92 in 10.0 mi West 8.1 mph 24.2 mph N/A   Clear
5:35 PM 58.6 °F 31.8 °F 36% 29.94 in 10.0 mi West 12.7 mph 17.3 mph N/A   Clear
5:55 PM 57.4 °F 32.0 °F 38% 29.95 in 10.0 mi West 10.4 mph 18.4 mph N/A   Clear
6:15 PM 56.5 °F 32.5 °F 40% 29.96 in 10.0 mi West 13.8 mph 18.4 mph N/A   Clear
6:35 PM 56.1 °F 32.9 °F 41% 29.98 in 10.0 mi Calm Calm - N/A   Clear
6:55 PM 54.7 °F 33.6 °F 45% 29.99 in 10.0 mi Calm Calm - N/A   Clear
7:15 PM 53.8 °F 33.8 °F 47% 30.00 in 10.0 mi Calm Calm - N/A   Clear
7:35 PM 53.1 °F 34.0 °F 48% 30.01 in 10.0 mi Calm Calm - N/A   Clear
7:55 PM 52.2 °F 34.2 °F 50% 30.02 in 10.0 mi Calm Calm - N/A   Clear
8:15 PM 51.8 °F 34.3 °F 51% 30.03 in 10.0 mi Calm Calm - N/A   Clear
8:35 PM 50.5 °F 34.5 °F 54% 30.04 in 10.0 mi Calm Calm - N/A   Clear
8:55 PM 43.3 °F 35.1 °F 73% 30.05 in 10.0 mi Calm Calm - N/A   Clear
9:15 PM 42.3 °F 35.6 °F 77% 30.06 in 10.0 mi Calm Calm - N/A   Clear
9:35 PM 41.0 °F 37.2 °F 86% 30.06 in 10.0 mi Calm Calm - N/A   Clear
9:55 PM 39.6 °F 39.6 °F 100% 30.06 in 10.0 mi Calm Calm - N/A   Clear
10:15 PM 38.8 °F 38.8 °F 100% 30.07 in 10.0 mi Calm Calm - N/A   Clear
10:35 PM 37.9 °F 37.9 °F 100% 30.07 in 10.0 mi Calm Calm - N/A   Clear
10:55 PM 38.3 °F 38.3 °F 100% 30.07 in 10.0 mi Calm Calm - N/A   Clear
11:15 PM 37.4 °F 37.4 °F 100% 30.08 in 10.0 mi Calm Calm - N/A   Clear
11:35 PM 36.7 °F - N/A% 30.08 in 10.0 mi Calm Calm - N/A   Clear
11:55 PM 36.0 °F - N/A% 30.08 in 10.0 mi Calm Calm - N/A   Clear